• In Hungary
  • List of Countries
  • For 7 days
  • Water Temperature
  • Satellite Maps
  • Weather Map
  • News
  • Weather Widgets
  • user-avatar
    Login

    Hourly Weather Reno

    Today, 26 September, Wednesday

    Time Temperature Precipitation Wind Pressure Humidity
    00:00 +14°C° 0 mm 1 mps 647 mmHg 24%
    01:00 +13°C° 0 mm 1 mps 647 mmHg 25%
    02:00 +13°C° 0 mm 1 mps 647 mmHg 25%
    03:00 +12°C° 0 mm 1 mps 647 mmHg 26%
    04:00 +12°C° 0 mm 1 mps 647 mmHg 26%
    05:00 +13°C° 0 mm 1 mps 647 mmHg 26%
    06:00 +14°C° 0 mm 1 mps 648 mmHg 25%
    07:00 +15°C° 0 mm 1 mps 648 mmHg 24%
    08:00 +19°C° 0 mm 1 mps 649 mmHg 21%
    09:00 +22°C° 0 mm 1 mps 650 mmHg 17%
    10:00 +25°C° 0 mm 1 mps 650 mmHg 13%
    11:00 +26°C° 0 mm 1 mps 650 mmHg 12%
    12:00 +28°C° 0 mm 1 mps 650 mmHg 12%
    13:00 +29°C° 0 mm 1 mps 650 mmHg 11%
    14:00 +29°C° 0 mm 1 mps 650 mmHg 11%
    15:00 +29°C° 0 mm 2 mps 649 mmHg 11%
    16:00 +29°C° 0 mm 2 mps 649 mmHg 11%
    17:00 +26°C° 0 mm 1 mps 648 mmHg 14%
    18:00 +23°C° 0 mm 1 mps 648 mmHg 17%
    19:00 +18°C° 0 mm 0 mps 647 mmHg 20%
    20:00 +19°C° 0 mm 1 mps 647 mmHg 21%
    21:00 +19°C° 0 mm 1 mps 647 mmHg 21%
    22:00 +18°C° 0 mm 1 mps 647 mmHg 22%
    23:00 +18°C° 0 mm 1 mps 647 mmHg 22%

    Tomorrow, 27 September, Thursday

    Time Temperature Precipitation Wind Pressure Humidity
    00:00 +16°C° 0 mm 1 mps 647 mmHg 22%
    01:00 +16°C° 0 mm 1 mps 647 mmHg 22%
    02:00 +16°C° 0 mm 1 mps 646 mmHg 23%
    03:00 +15°C° 0 mm 1 mps 646 mmHg 23%
    04:00 +15°C° 0 mm 1 mps 646 mmHg 24%
    05:00 +16°C° 0 mm 1 mps 646 mmHg 24%
    06:00 +18°C° 0 mm 1 mps 647 mmHg 24%
    07:00 +19°C° 0 mm 1 mps 647 mmHg 24%
    08:00 +22°C° 0 mm 1 mps 648 mmHg 20%
    09:00 +25°C° 0 mm 1 mps 649 mmHg 17%
    10:00 +28°C° 0 mm 1 mps 649 mmHg 13%
    11:00 +29°C° 0 mm 1 mps 649 mmHg 12%
    12:00 +30°C° 0 mm 1 mps 649 mmHg 11%
    13:00 +31°C° 0 mm 1 mps 649 mmHg 11%
    14:00 +31°C° 0 mm 2 mps 648 mmHg 11%
    15:00 +31°C° 0 mm 2 mps 648 mmHg 11%
    16:00 +30°C° 0 mm 2 mps 647 mmHg 12%
    17:00 +27°C° 0 mm 2 mps 647 mmHg 15%
    18:00 +24°C° 0 mm 1 mps 646 mmHg 19%
    19:00 +21°C° 0 mm 1 mps 645 mmHg 22%
    20:00 +21°C° 0 mm 1 mps 645 mmHg 23%
    21:00 +20°C° 0 mm 1 mps 645 mmHg 23%
    22:00 +19°C° 0 mm 1 mps 645 mmHg 24%
    23:00 +19°C° 0 mm 1 mps 645 mmHg 24%

    Day after tomorrow, 28 September, Friday

    Time Temperature Precipitation Wind Pressure Humidity
    00:00 +19°C° 0 mm 1 mps 645 mmHg 24%
    01:00 +18°C° 0 mm 1 mps 644 mmHg 25%
    02:00 +18°C° 0 mm 1 mps 644 mmHg 25%
    03:00 +18°C° 0 mm 1 mps 644 mmHg 25%
    04:00 +18°C° 0 mm 1 mps 644 mmHg 26%
    05:00 +18°C° 0 mm 1 mps 644 mmHg 26%
    06:00 +19°C° 0 mm 1 mps 644 mmHg 26%
    07:00 +19°C° 0 mm 1 mps 645 mmHg 26%
    08:00 +22°C° 0 mm 1 mps 645 mmHg 23%
    09:00 +25°C° 0 mm 1 mps 646 mmHg 19%
    10:00 +28°C° 0 mm 1 mps 647 mmHg 15%
    11:00 +29°C° 0 mm 1 mps 646 mmHg 14%
    12:00 +30°C° 0 mm 2 mps 646 mmHg 13%
    13:00 +31°C° 0 mm 2 mps 646 mmHg 13%
    14:00 +30°C° 0 mm 2 mps 645 mmHg 14%
    15:00 +30°C° 0 mm 3 mps 645 mmHg 15%
    16:00 +30°C° 0 mm 3 mps 645 mmHg 16%
    17:00 +27°C° 0 mm 3 mps 644 mmHg 21%
    18:00 +24°C° 0 mm 2 mps 644 mmHg 27%
    19:00 +20°C° 0 mm 2 mps 643 mmHg 33%
    20:00 +19°C° 0 mm 2 mps 643 mmHg 35%
    21:00 +18°C° 0 mm 2 mps 643 mmHg 37%
    22:00 +18°C° 0 mm 2 mps 643 mmHg 40%
    23:00 +17°C° 0 mm 2 mps 642 mmHg 40%

    29 September, Saturday

    Time Temperature Precipitation Wind Pressure Humidity
    00:00 +16°C° 0 mm 2 mps 642 mmHg 41%
    01:00 +16°C° 0 mm 2 mps 642 mmHg 42%
    02:00 +15°C° 0 mm 2 mps 641 mmHg 43%
    03:00 +15°C° 0 mm 2 mps 641 mmHg 44%
    04:00 +15°C° 0 mm 2 mps 641 mmHg 45%
    05:00 +15°C° 0 mm 2 mps 642 mmHg 44%
    06:00 +15°C° 0 mm 2 mps 642 mmHg 43%
    07:00 +16°C° 0 mm 2 mps 642 mmHg 42%
    08:00 +18°C° 0 mm 3 mps 643 mmHg 35%
    09:00 +21°C° 0 mm 5 mps 643 mmHg 29%
    10:00 +23°C° 0 mm 6 mps 644 mmHg 22%
    11:00 +24°C° 0 mm 7 mps 644 mmHg 21%
    12:00 +24°C° 0 mm 8 mps 643 mmHg 19%
    13:00 +26°C° 0 mm 8 mps 643 mmHg 18%
    14:00 +24°C° 0 mm 8 mps 643 mmHg 20%
    15:00 +23°C° 0 mm 8 mps 642 mmHg 22%
    16:00 +22°C° 0 mm 8 mps 642 mmHg 25%
    17:00 +19°C° 0 mm 6 mps 642 mmHg 33%
    18:00 +16°C° 0 mm 5 mps 641 mmHg 42%
    19:00 +13°C° 0 mm 3 mps 641 mmHg 50%
    20:00 +13°C° 0 mm 2 mps 641 mmHg 55%
    21:00 +12°C° 0 mm 2 mps 641 mmHg 60%
    22:00 +12°C° 0 mm 1 mps 641 mmHg 65%
    23:00 +11°C° 0 mm 1 mps 641 mmHg 66%

    30 September, Sunday

    Time Temperature Precipitation Wind Pressure Humidity
    00:00 +11°C° 0 mm 1 mps 641 mmHg 67%
    01:00 +10°C° 0 mm 2 mps 640 mmHg 67%
    02:00 +9°C° 0 mm 2 mps 640 mmHg 67%
    03:00 +9°C° 0 mm 2 mps 640 mmHg 67%
    04:00 +9°C° 0 mm 2 mps 640 mmHg 67%
    05:00 +9°C° 0 mm 2 mps 641 mmHg 64%
    06:00 +10°C° 0 mm 2 mps 641 mmHg 60%
    07:00 +12°C° 0 mm 2 mps 641 mmHg 57%
    08:00 +13°C° 0 mm 3 mps 642 mmHg 46%
    09:00 +17°C° 0 mm 4 mps 642 mmHg 36%
    10:00 +20°C° 0 mm 5 mps 643 mmHg 26%
    11:00 +21°C° 0 mm 6 mps 643 mmHg 24%
    12:00 +22°C° 0 mm 7 mps 643 mmHg 23%
    13:00 +23°C° 0 mm 7 mps 643 mmHg 22%
    14:00 +22°C° 0 mm 7 mps 642 mmHg 25%
    15:00 +21°C° 0 mm 7 mps 642 mmHg 28%
    16:00 +20°C° 0 mm 7 mps 641 mmHg 31%
    17:00 +17°C° 0 mm 5 mps 641 mmHg 38%
    18:00 +17°C° 0 mm 4 mps 641 mmHg 45%
    19:00 +15°C° 0 mm 2 mps 641 mmHg 52%
    20:00 +14°C° 0 mm 2 mps 641 mmHg 55%
    21:00 +14°C° 0 mm 2 mps 641 mmHg 58%
    22:00 +13°C° 0 mm 2 mps 641 mmHg 62%
    23:00 +13°C° 0 mm 1 mps 641 mmHg 62%

    1 October, Monday

    Time Temperature Precipitation Wind Pressure Humidity
    00:00 +13°C° 0 mm 1 mps 641 mmHg 61%
    01:00 +13°C° 0 mm 1 mps 641 mmHg 61%
    02:00 +12°C° 0 mm 1 mps 640 mmHg 64%
    03:00 +11°C° 0 mm 1 mps 640 mmHg 67%
    04:00 +11°C° 0 mm 1 mps 640 mmHg 70%
    05:00 +11°C° 0 mm 1 mps 640 mmHg 66%
    06:00 +12°C° 0 mm 1 mps 640 mmHg 63%
    07:00 +12°C° 0 mm 1 mps 641 mmHg 60%
    08:00 +14°C° 0 mm 1 mps 641 mmHg 53%
    09:00 +16°C° 0 mm 2 mps 641 mmHg 46%
    10:00 +17°C° 0 mm 2 mps 641 mmHg 39%
    11:00 +18°C° 0 mm 2 mps 641 mmHg 39%
    12:00 +18°C° 0 mm 2 mps 641 mmHg 38%
    13:00 +19°C° 0 mm 2 mps 641 mmHg 37%
    14:00 +18°C° 0.2 mm 2 mps 640 mmHg 41%
    15:00 +17°C° 0.2 mm 2 mps 640 mmHg 46%
    16:00 +17°C° 0.2 mm 2 mps 640 mmHg 50%
    17:00 +16°C° 0.7 mm 2 mps 640 mmHg 58%
    18:00 +14°C° 0.7 mm 2 mps 640 mmHg 66%
    19:00 +13°C° 0.7 mm 2 mps 640 mmHg 74%
    20:00 +13°C° 0.4 mm 1 mps 640 mmHg 76%
    21:00 +12°C° 0.4 mm 1 mps 640 mmHg 78%
    22:00 +12°C° 0.4 mm 1 mps 640 mmHg 80%
    23:00 +11°C° 0 mm 1 mps 640 mmHg 81%
    Show more